FW3609 Beltsville MD US current weather conditions

sailwx.info

Wind from 354 at 1 knots gusting 5

Air temperature 20.6° C
Dewpoint 13.7° C

Last reported at 2020-Oct-01 16:02 UTC.
Time now 2020-Oct-01 16:39 UTC

Location: N 39°03' W 076°56'.
View on Google Maps.

See reports from other nearby stations

  
Tides and Currents Weather Stations Pressure Air Temp Water Temp Dewpoint Dewpoint Depression Visibility Wind Speed Wind Dir Waves Ship Positions
date/time (UTC)wind fromknots sea level pressurealtimeterstation pressurevisibilityair tempwater tempwave heightnotes
2020-Oct-01 16:02 354 1 gusting 5 20.6
2020-Oct-01 15:46 020 20.6
2020-Oct-01 15:30 292 20.0
2020-Oct-01 15:19 249 1 gusting 7 20.0
2020-Oct-01 15:02 247 1 gusting 7 19.4
2020-Oct-01 14:45 293 2 gusting 6 18.9
2020-Oct-01 14:00 229 0 gusting 3 18.9
2020-Oct-01 13:45 281 2 gusting 5 18.3
2020-Oct-01 13:31 284 1 gusting 4 17.2
2020-Oct-01 13:16 273 1 gusting 3 15.6
2020-Oct-01 13:00 259 1 gusting 5 15.0
2020-Oct-01 12:47 303 0 gusting 1 15.0
2020-Oct-01 12:31 259 13.3
2020-Oct-01 12:16 200 12.8
2020-Oct-01 11:47 201 12.2
2020-Oct-01 11:32 201 11.7
2020-Oct-01 11:16 201 11.1
2020-Oct-01 11:00 201 11.1
2020-Oct-01 10:45 201 11.1
2020-Oct-01 10:33 220 11.1
2020-Oct-01 10:17 220 11.1
2020-Oct-01 10:00 220 11.1
2020-Oct-01 09:45 220 11.1
2020-Oct-01 09:31 220 11.1
2020-Oct-01 09:16 220 11.7
2020-Oct-01 09:00 220 11.7
2020-Oct-01 08:32 220 11.7
2020-Oct-01 08:16 220 12.2
2020-Oct-01 08:00 220 12.2
2020-Oct-01 07:45 221 12.2
2020-Oct-01 07:15 216 12.2
2020-Oct-01 07:01 085 12.2
2020-Oct-01 06:47 085 12.2
2020-Oct-01 06:31 330 12.2
2020-Oct-01 06:15 089 12.8
2020-Oct-01 06:01 090 12.8
2020-Oct-01 05:46 089 13.3
2020-Oct-01 05:31 004 13.3
2020-Oct-01 05:15 004 13.3
2020-Oct-01 05:02 289 13.3
2020-Oct-01 04:46 289 13.9
2020-Oct-01 04:30 288 14.4
2020-Oct-01 04:16 243 15.0
2020-Oct-01 04:01 238 15.0
2020-Oct-01 03:46 225 15.6
2020-Oct-01 03:30 255 15.6
2020-Oct-01 03:15 234 15.6
2020-Oct-01 02:45 207 16.1
2020-Oct-01 02:30 218 16.1
2020-Oct-01 02:15 192 16.1
2020-Oct-01 02:02 190 0 gusting 2 16.1
2020-Oct-01 01:47 132 15.6
2020-Oct-01 01:31 219 15.6
2020-Oct-01 01:16 197 15.6
2020-Oct-01 01:01 132 15.6
2020-Oct-01 00:46 117 16.1
2020-Oct-01 00:32 285 16.1
2020-Oct-01 00:16 285 16.7
2020-Oct-01 00:01 129 16.7
2020-Sep-30 23:46 153 17.8
2020-Sep-30 23:30 152 17.8
2020-Sep-30 23:01 214 18.3
2020-Sep-30 22:45 247 18.9
2020-Sep-30 22:31 162 19.4
2020-Sep-30 22:15 221 0 gusting 3 19.4
2020-Sep-30 22:00 236 20.6
2020-Sep-30 21:45 244 21.7
2020-Sep-30 21:31 178 0 gusting 7 21.7
2020-Sep-30 21:16 143 0 gusting 6 21.7
2020-Sep-30 21:00 248 0 gusting 3 21.7
2020-Sep-30 20:45 245 1 gusting 5 21.7
2020-Sep-30 20:31 214 1 gusting 4 21.7
2020-Sep-30 20:16 176 1 gusting 6 21.7
2020-Sep-30 20:01 161 0 gusting 5 21.7
2020-Sep-30 19:46 008 0 gusting 6 21.7
2020-Sep-30 19:31 266 1 gusting 7 21.1
2020-Sep-30 19:16 333 1 gusting 5 21.1
2020-Sep-30 19:02 224 2 gusting 8 21.1
2020-Sep-30 18:46 253 2 gusting 6 20.6
2020-Sep-30 18:30 249 3 gusting 6 20.6
2020-Sep-30 18:15 285 1 gusting 6 20.0
2020-Sep-30 18:02 285 2 gusting 9 19.4
2020-Sep-30 17:46 251 2 gusting 6 19.4
2020-Sep-30 17:30 236 2 gusting 6 20.0
2020-Sep-30 17:15 259 4 gusting 11 19.4
2020-Sep-30 17:01 305 1 gusting 6 19.4
2020-Sep-30 16:45 265 1 gusting 11 18.9
2020-Sep-30 16:30 216 3 gusting 8 18.9
2020-Sep-30 16:16 284 1 gusting 8 18.3
2020-Sep-30 16:01 158 0 gusting 7 18.3
2020-Sep-30 15:45 153 1 gusting 6 18.3
2020-Sep-30 15:32 349 2 gusting 10 17.8
2020-Sep-30 15:16 283 2 gusting 7 17.8
2020-Sep-30 14:47 241 4 gusting 8 17.2
2020-Sep-30 14:31 307 2 gusting 6 17.2
2020-Sep-30 14:16 292 2 gusting 8 16.7
2020-Sep-30 14:02 259 1 gusting 4 16.7
2020-Sep-30 13:46 269 1 gusting 6 16.1
2020-Sep-30 13:30 130 0 gusting 7 15.6
2020-Sep-30 13:16 282 1 gusting 5 15.0
2020-Sep-30 13:00 186 15.0
2020-Sep-30 12:46 216 13.9
2020-Sep-30 12:31 219 0 gusting 4 13.3
2020-Sep-30 12:16 244 0 gusting 2 12.8
2020-Sep-30 12:04 243 12.2
2020-Sep-30 11:47 222 11.7
2020-Sep-30 11:32 215 12.2
2020-Sep-30 11:16 269 12.2
2020-Sep-30 11:02 266 12.2
2020-Sep-30 10:47 224 12.2
2020-Sep-30 10:31 243 12.2
2020-Sep-30 10:15 181 0 gusting 3 12.8
2020-Sep-30 10:02 198 12.8
2020-Sep-30 09:31 258 12.2
2020-Sep-30 09:15 171 12.2
2020-Sep-30 09:02 240 12.8
2020-Sep-30 08:46 247 0 gusting 2 12.2
2020-Sep-30 08:30 223 2 gusting 6 12.2
2020-Sep-30 08:15 211 2 gusting 9 12.2
2020-Sep-30 08:01 259 1 gusting 6 12.8
2020-Sep-30 07:46 236 1 gusting 6 12.8
2020-Sep-30 07:31 254 3 gusting 8 12.8
2020-Sep-30 07:15 310 2 gusting 6 12.8
2020-Sep-30 07:01 245 0 gusting 5 12.8
2020-Sep-30 06:46 262 0 gusting 5 12.8
2020-Sep-30 06:30 281 0 gusting 2 12.8
2020-Sep-30 06:15 089 12.8
2020-Sep-30 06:01 004 12.8
2020-Sep-30 05:46 082 12.8
2020-Sep-30 05:18 343 12.8
2020-Sep-30 05:01 359 12.8
2020-Sep-30 04:45 268 12.8
2020-Sep-30 04:30 293 12.8
2020-Sep-30 04:17 301 12.8
2020-Sep-30 04:01 211 12.8
2020-Sep-30 03:45 039 13.3
2020-Sep-30 03:30 021 13.3
2020-Sep-30 03:01 281 13.3
2020-Sep-30 02:45 243 2 gusting 10 13.3
2020-Sep-30 02:30 289 1 gusting 6 13.9
2020-Sep-30 02:01 283 3 gusting 6 14.4
2020-Sep-30 01:45 269 2 gusting 7 15.0
2020-Sep-30 01:30 290 0 gusting 5 15.6
2020-Sep-30 01:16 268 2 gusting 7 16.1
2020-Sep-30 01:00 286 3 gusting 9 16.1
2020-Sep-30 00:45 292 1 gusting 7 16.7
2020-Sep-30 00:16 310 2 gusting 9 17.8
2020-Sep-30 00:00 322 2 gusting 8 17.8
2020-Sep-29 23:45 333 5 gusting 11 18.3
2020-Sep-29 23:30 286 1 gusting 5 18.9
2020-Sep-29 23:16 266 0 gusting 5 19.4
2020-Sep-29 22:47 302 20.0
2020-Sep-29 22:32 335 20.0
2020-Sep-29 22:16 358 20.6
2020-Sep-29 21:46 319 21.1
2020-Sep-29 21:30 291 1 gusting 4 21.7
2020-Sep-29 21:15 359 0 gusting 5 22.2
2020-Sep-29 21:01 316 0 gusting 9 23.3
2020-Sep-29 20:46 342 2 gusting 7 23.9
2020-Sep-29 20:31 280 2 gusting 6 25.6
2020-Sep-29 20:16 279 0 gusting 5 26.1
2020-Sep-29 20:01 229 0 gusting 4 27.2
2020-Sep-29 19:45 151 26.7
2020-Sep-29 19:30 079 26.7
2020-Sep-29 19:15 205 0 gusting 3 27.2
2020-Sep-29 19:01 106 0 gusting 6 26.7
2020-Sep-29 18:46 109 1 gusting 6 27.2
2020-Sep-29 18:31 240 0 gusting 5 26.1
2020-Sep-29 18:15 291 0 gusting 6 26.1
2020-Sep-29 18:00 105 0 gusting 3 26.1
2020-Sep-29 17:46 140 1 gusting 6 26.1
2020-Sep-29 17:30 274 1 gusting 8 25.6
2020-Sep-29 17:16 096 0 gusting 6 25.6
2020-Sep-29 17:02 106 0 gusting 4 25.0
2020-Sep-29 16:45 192 0 gusting 6 25.0
2020-Sep-29 16:32 208 0 gusting 5 24.4
2020-Sep-29 16:17 210 24.4
2020-Sep-29 16:00 117 23.9